2023/01/02 23:31:34+0000,-32.16,-40.64,-33.27,-38.13,-47.15,-53.67
2023/01/02 23:32:26+0000,-32.08,-39.11,-32.38,-38.01,-49.16,-53.56
2023/01/02 23:33:18+0000,-32.51,-39.22,-32.60,-38.19,-12.11,-53.99
2023/01/02 23:34:10+0000,-32.39,-39.84,-32.61,-37.33,-49.17,-53.52
2023/01/02 23:35:02+0000,-33.16,-40.99,-32.47,-38.58,-46.16,-53.93
2023/01/02 23:35:54+0000,-32.59,-40.33,-31.95,-37.59,-11.69,-53.64
2023/01/02 23:36:46+0000,-32.48,-39.90,-32.69,-37.68,-48.62,-53.31
2023/01/02 23:37:38+0000,-33.75,-39.34,-31.99,-38.01,-46.42,-53.52
2023/01/02 23:38:30+0000,-32.72,-40.44,-32.61,-38.53,-45.30,-54.09
2023/01/02 23:39:22+0000,-32.45,-39.94,-32.72,-39.16,-49.20,-53.40
2023/01/02 23:40:15+0000,-33.31,-40.31,-32.10,-36.25,-48.03,-53.47
2023/01/02 23:41:14+0000,-33.31,-39.44,-32.40,-36.10,-47.47,-52.83
2023/01/02 23:42:06+0000,-33.23,-40.32,-32.01,-36.80,-44.85,-52.79
2023/01/02 23:42:58+0000,-32.64,-39.28,-32.33,-36.52,-48.29,-53.05
2023/01/02 23:43:50+0000,-33.23,-39.36,-32.17,-37.32,-47.85,-53.91
2023/01/02 23:44:42+0000,-32.74,-39.95,-32.47,-36.65,-48.43,-52.28
2023/01/02 23:45:34+0000,-33.36,-39.08,-32.27,-37.62,-47.38,-53.32
2023/01/02 23:46:26+0000,-32.91,-40.05,-32.45,-37.49,-49.16,-52.89
2023/01/02 23:47:18+0000,-32.81,-39.19,-31.91,-35.86,-48.06,-53.36
2023/01/02 23:48:10+0000,-33.25,-39.17,-32.35,-36.96,-48.96,-52.84
2023/01/02 23:49:02+0000,-32.72,-40.72,-32.33,-36.36,-47.50,-53.87
2023/01/02 23:49:54+0000,-31.92,-40.86,-32.64,-37.11,-48.40,-53.25
2023/01/02 23:50:47+0000,-32.74,-39.84,-32.14,-35.96,-47.79,-53.16
2023/01/02 23:51:46+0000,-32.88,-40.17,-31.82,-36.53,-48.63,-53.08
2023/01/02 23:52:38+0000,-32.80,-40.73,-32.58,-35.68,-48.09,-53.42
2023/01/02 23:53:30+0000,-32.79,-40.82,-32.73,-36.67,-47.77,-52.72
2023/01/02 23:54:22+0000,-32.53,-40.15,-32.13,-35.62,-49.00,-53.44
2023/01/02 23:55:14+0000,-33.17,-40.19,-32.08,-36.54,-48.62,-53.10
2023/01/02 23:56:06+0000,-32.89,-39.58,-32.23,-36.63,-47.92,-54.05
2023/01/02 23:56:58+0000,-33.31,-40.05,-32.01,-36.72,-48.76,-52.66
2023/01/02 23:57:50+0000,-32.99,-40.41,-32.05,-36.62,-48.46,-52.97
2023/01/02 23:58:42+0000,-32.11,-39.71,-31.83,-35.55,-47.71,-52.66
2023/01/02 23:59:34+0000,-32.55,-40.41,-31.89,-37.04,-48.10,-53.52
2023/01/03 00:00:26+0000,-32.03,-39.17,-31.93,-36.36,-47.84,-53.60
2023/01/03 00:01:30+0000,-32.51,-38.85,-32.25,-36.73,-47.91,-53.40
2023/01/03 00:02:22+0000,-32.28,-40.36,-31.44,-35.43,-47.79,-53.09
2023/01/03 00:03:14+0000,-32.29,-40.42,-31.32,-35.25,-48.59,-53.78
2023/01/03 00:04:06+0000,-32.65,-39.55,-32.09,-34.24,-48.58,-53.14
2023/01/03 00:04:58+0000,-32.38,-39.96,-32.05,-36.16,-48.13,-53.07
2023/01/03 00:05:50+0000,-32.34,-40.75,-31.74,-35.54,-48.24,-53.25
2023/01/03 00:06:42+0000,-31.59,-40.95,-32.41,-35.65,-47.61,-53.05
2023/01/03 00:07:35+0000,-32.06,-41.25,-31.68,-36.34,-48.17,-53.20
2023/01/03 00:08:27+0000,-32.04,-39.73,-32.09,-36.39,-48.60,-53.31
2023/01/03 00:09:19+0000,-31.60,-40.27,-31.58,-36.88,-47.84,-53.06
2023/01/03 00:10:11+0000,-32.92,-40.93,-32.45,-37.11,-48.32,-52.76
2023/01/03 00:11:11+0000,-32.40,-39.98,-31.44,-36.55,-47.16,-52.73
2023/01/03 00:12:03+0000,-32.83,-40.59,-31.79,-37.16,-48.14,-52.90
2023/01/03 00:12:55+0000,-32.63,-39.84,-31.78,-37.40,-47.76,-54.41
2023/01/03 00:13:47+0000,-32.57,-40.25,-30.94,-35.30,-47.83,-52.58
2023/01/03 00:14:39+0000,-32.77,-40.00,-32.08,-36.29,-47.63,-54.41
2023/01/03 00:15:31+0000,-32.88,-39.63,-32.66,-37.33,-49.09,-53.99
2023/01/03 00:16:23+0000,-33.77,-38.80,-32.08,-37.15,-48.50,-53.68
2023/01/03 00:17:15+0000,-32.65,-39.46,-31.72,-36.11,-48.27,-53.57
2023/01/03 00:18:07+0000,-31.83,-39.89,-31.95,-37.07,-49.75,-53.88
2023/01/03 00:18:59+0000,-32.35,-39.35,-32.83,-37.19,-49.27,-53.64
2023/01/03 00:19:51+0000,-32.05,-40.86,-31.78,-37.11,-49.06,-53.82
2023/01/03 00:20:43+0000,-32.10,-40.26,-32.09,-36.85,-48.98,-53.78
2023/01/03 00:21:43+0000,-32.10,-40.00,-33.06,-36.56,-49.25,-54.24
2023/01/03 00:22:35+0000,-32.00,-41.45,-32.14,-36.56,-49.29,-53.79
2023/01/03 00:23:27+0000,-31.69,-39.33,-32.09,-36.86,-48.83,-53.91
2023/01/03 00:24:19+0000,-32.12,-40.39,-31.82,-37.35,-48.65,-53.37
2023/01/03 00:25:11+0000,-31.69,-39.99,-31.95,-37.68,-48.48,-53.53
2023/01/03 00:26:03+0000,-32.02,-38.87,-31.32,-36.88,-49.40,-53.49
2023/01/03 00:26:55+0000,-32.25,-40.67,-31.24,-36.35,-48.98,-53.78
2023/01/03 00:27:48+0000,-32.39,-40.23,-31.49,-35.72,-48.36,-53.61
2023/01/03 00:28:40+0000,-32.31,-40.58,-32.28,-35.69,-49.10,-53.22
2023/01/03 00:29:32+0000,-32.32,-38.67,-31.85,-36.47,-48.86,-53.70
2023/01/03 00:30:24+0000,-32.40,-40.11,-31.34,-37.47,-48.94,-53.38
2023/01/03 00:31:24+0000,-32.39,-40.98,-31.24,-36.39,-49.23,-53.79
2023/01/03 00:32:16+0000,-32.86,-40.38,-31.20,-36.39,-48.74,-53.54
2023/01/03 00:33:08+0000,-32.38,-40.43,-32.23,-36.26,-49.09,-53.26
2023/01/03 00:34:01+0000,-32.94,-41.15,-31.74,-36.64,-49.14,-53.50
2023/01/03 00:34:53+0000,-32.89,-40.33,-32.19,-36.91,-48.24,-52.68
2023/01/03 00:35:45+0000,-32.59,-37.77,-31.94,-36.26,-49.04,-52.81
2023/01/03 00:36:37+0000,-33.42,-40.51,-33.06,-36.86,-48.76,-53.00
2023/01/03 00:37:29+0000,-32.68,-40.54,-32.31,-37.35,-48.72,-54.50
2023/01/03 00:38:21+0000,-33.08,-40.36,-31.61,-36.74,-12.01,-53.56
2023/01/03 00:39:13+0000,-32.31,-38.37,-32.55,-36.13,-48.87,-53.39
2023/01/03 00:40:05+0000,-32.62,-40.91,-31.98,-37.13,-49.02,-53.81
2023/01/03 00:41:06+0000,-32.58,-40.85,-31.98,-37.78,-49.13,-53.59
2023/01/03 00:41:58+0000,-32.31,-40.64,-32.62,-36.96,-48.40,-54.07
2023/01/03 00:42:50+0000,-32.90,-40.22,-32.31,-37.46,-11.96,-52.75
2023/01/03 00:43:42+0000,-31.81,-38.92,-32.15,-36.45,-48.47,-53.98
2023/01/03 00:44:34+0000,-32.37,-40.80,-31.63,-36.81,-48.37,-54.20
2023/01/03 00:45:26+0000,-32.32,-41.27,-31.78,-36.67,-48.17,-53.76
2023/01/03 00:46:18+0000,-33.36,-39.69,-32.16,-37.56,-12.53,-53.77
2023/01/03 00:47:10+0000,-32.71,-39.97,-31.72,-37.44,-48.68,-53.56
2023/01/03 00:48:02+0000,-33.28,-41.10,-31.89,-36.39,-48.86,-53.18
2023/01/03 00:48:54+0000,-33.42,-40.63,-31.09,-37.35,-14.44,-52.92
2023/01/03 00:49:46+0000,-32.74,-40.17,-31.94,-36.39,-12.17,-53.52
2023/01/03 00:50:38+0000,-32.32,-40.31,-31.70,-36.98,-49.52,-53.56
2023/01/03 00:51:40+0000,-32.42,-39.61,-31.74,-36.02,-49.73,-53.94
2023/01/03 00:52:32+0000,-33.32,-38.71,-31.56,-36.80,-49.77,-53.24
2023/01/03 00:53:24+0000,-32.32,-38.40,-32.11,-36.49,-12.03,-54.00
2023/01/03 00:54:17+0000,-32.17,-39.30,-32.26,-37.04,-12.28,-53.99
2023/01/03 00:55:09+0000,-33.34,-40.60,-31.91,-37.01,-48.90,-54.45
2023/01/03 00:56:01+0000,-33.57,-39.13,-31.82,-37.24,-48.68,-53.80
2023/01/03 00:56:53+0000,-33.48,-38.59,-32.07,-37.25,-13.11,-54.02
2023/01/03 00:57:45+0000,-33.05,-39.89,-32.08,-37.73,-12.01,-53.53
2023/01/03 00:58:37+0000,-33.05,-39.30,-30.78,-37.55,-49.26,-53.67
2023/01/03 00:59:29+0000,-32.90,-38.71,-31.96,-37.50,-48.86,-53.87
2023/01/03 01:00:21+0000,-32.09,-40.46,-32.32,-37.88,-11.69,-53.99
2023/01/03 01:01:21+0000,-31.99,-38.35,-32.12,-38.39,-12.04,-54.26
2023/01/03 01:02:13+0000,-32.76,-38.75,-32.57,-37.73,-12.10,-54.02
2023/01/03 01:03:05+0000,-32.53,-37.95,-31.51,-36.65,-48.99,-53.59
2023/01/03 01:03:57+0000,-32.33,-40.23,-32.52,-36.68,-48.98,-54.02
2023/01/03 01:04:49+0000,-32.66,-39.87,-32.48,-37.74,-49.87,-53.87
2023/01/03 01:05:41+0000,-32.48,-41.41,-32.17,-37.21,-49.27,-53.79
2023/01/03 01:06:33+0000,-32.52,-41.12,-31.54,-37.26,-49.76,-53.66
2023/01/03 01:07:25+0000,-32.62,-40.49,-32.22,-36.59,-49.85,-54.46
2023/01/03 01:08:17+0000,-32.82,-40.73,-32.65,-36.71,-50.07,-53.78
2023/01/03 01:09:09+0000,-31.92,-39.38,-31.28,-37.26,-49.34,-53.86
2023/01/03 01:10:02+0000,-33.12,-41.15,-30.47,-37.39,-48.95,-53.92
2023/01/03 01:11:01+0000,-32.74,-40.87,-30.86,-37.27,-50.26,-53.97
2023/01/03 01:11:53+0000,-33.12,-40.35,-32.13,-37.53,-50.05,-53.37
2023/01/03 01:12:45+0000,-33.35,-40.43,-32.41,-36.90,-49.74,-54.43
2023/01/03 01:13:37+0000,-31.95,-40.27,-29.20,-37.10,-49.71,-53.57
2023/01/03 01:14:29+0000,-31.94,-40.04,-29.92,-36.67,-50.13,-54.58
2023/01/03 01:15:21+0000,-32.49,-41.17,-32.22,-37.64,-49.68,-53.90
2023/01/03 01:16:13+0000,-32.72,-40.05,-32.56,-35.83,-50.30,-54.17
2023/01/03 01:17:05+0000,-32.22,-40.57,-30.91,-35.10,-49.58,-53.66
2023/01/03 01:17:57+0000,-32.97,-39.11,-32.91,-36.34,-49.23,-54.43
2023/01/03 01:18:49+0000,-33.71,-38.64,-32.30,-36.91,-48.80,-53.06
2023/01/03 01:19:41+0000,-32.74,-39.47,-32.65,-37.08,-49.13,-53.14
2023/01/03 01:20:34+0000,-31.54,-38.95,-30.13,-37.50,-49.08,-52.99
2023/01/03 01:21:33+0000,-32.10,-40.86,-28.53,-37.49,-48.75,-52.23
2023/01/03 01:22:25+0000,-32.18,-39.90,-32.72,-37.32,-48.85,-52.96
2023/01/03 01:23:17+0000,-32.73,-40.19,-32.04,-36.00,-49.44,-53.47
2023/01/03 01:24:09+0000,-32.35,-40.57,-30.56,-36.12,-49.51,-52.68
2023/01/03 01:25:01+0000,-32.38,-39.27,-30.47,-37.19,-49.44,-52.85
2023/01/03 01:25:53+0000,-32.81,-39.98,-31.92,-36.90,-48.83,-53.08
2023/01/03 01:26:45+0000,-32.82,-40.60,-32.16,-35.18,-48.68,-52.33
2023/01/03 01:27:37+0000,-32.25,-40.97,-27.89,-36.00,-48.93,-52.64
2023/01/03 01:28:29+0000,-32.61,-40.18,-29.70,-36.63,-47.95,-52.31
2023/01/03 01:29:21+0000,-33.32,-40.97,-31.23,-36.75,-48.95,-52.55
2023/01/03 01:30:14+0000,-33.27,-40.49,-32.58,-36.14,-48.43,-52.41
2023/01/03 01:31:31+0000,-32.86,-40.28,-28.03,-38.05,-47.99,-52.63
2023/01/03 01:32:23+0000,-32.46,-40.41,-32.02,-37.65,-49.02,-52.85
2023/01/03 01:33:15+0000,-32.31,-40.12,-31.97,-36.54,-48.01,-52.46
2023/01/03 01:34:07+0000,-33.10,-39.80,-28.11,-36.41,-48.04,-52.98
2023/01/03 01:34:59+0000,-32.36,-39.33,-32.30,-37.48,-48.30,-52.85
2023/01/03 01:35:51+0000,-33.52,-41.44,-32.24,-37.41,-48.71,-52.23
2023/01/03 01:36:43+0000,-33.62,-40.72,-31.95,-35.79,-47.82,-52.40
2023/01/03 01:37:35+0000,-33.26,-39.80,-28.58,-36.85,-48.29,-52.14
2023/01/03 01:38:27+0000,-33.58,-39.41,-31.83,-36.64,-48.48,-52.42
2023/01/03 01:39:19+0000,-33.50,-40.13,-32.01,-37.47,-48.52,-52.55
2023/01/03 01:40:11+0000,-32.55,-40.37,-28.98,-36.43,-48.70,-52.33
2023/01/03 01:41:11+0000,-32.59,-40.05,-27.78,-35.67,-48.10,-53.26
2023/01/03 01:42:03+0000,-32.65,-39.13,-27.75,-37.08,-47.59,-52.44
2023/01/03 01:42:55+0000,-32.80,-39.49,-31.90,-36.54,-47.98,-52.34
2023/01/03 01:43:47+0000,-33.03,-40.62,-31.71,-36.00,-48.62,-52.69
2023/01/03 01:44:39+0000,-32.31,-39.67,-27.74,-36.26,-48.38,-52.13
2023/01/03 01:45:31+0000,-32.77,-38.35,-27.98,-37.73,-48.67,-51.96
2023/01/03 01:46:23+0000,-32.96,-41.19,-32.09,-37.95,-48.05,-52.65
2023/01/03 01:47:15+0000,-33.67,-41.12,-32.20,-35.71,-48.81,-52.66
2023/01/03 01:48:07+0000,-32.51,-39.36,-28.10,-35.96,-48.21,-53.14
2023/01/03 01:48:59+0000,-32.01,-41.07,-32.53,-36.69,-48.78,-52.74
2023/01/03 01:49:51+0000,-32.65,-39.98,-31.90,-37.31,-48.29,-52.62
2023/01/03 01:50:43+0000,-32.78,-40.68,-32.25,-38.30,-48.93,-52.80
2023/01/03 01:51:43+0000,-32.60,-40.37,-32.38,-37.71,-47.54,-53.07
2023/01/03 01:52:35+0000,-32.14,-39.57,-29.53,-38.01,-48.11,-52.26
2023/01/03 01:53:27+0000,-31.71,-39.37,-32.42,-36.19,-48.31,-52.33
2023/01/03 01:54:19+0000,-31.74,-39.41,-32.28,-37.16,-48.12,-52.70
2023/01/03 01:55:11+0000,-31.85,-41.50,-27.82,-36.71,-48.52,-52.99
2023/01/03 01:56:03+0000,-32.00,-39.81,-29.24,-37.61,-47.97,-52.54
2023/01/03 01:56:55+0000,-32.87,-39.90,-31.84,-37.57,-47.96,-52.27
2023/01/03 01:57:47+0000,-32.11,-40.14,-31.58,-37.44,-49.28,-52.90
2023/01/03 01:58:39+0000,-32.80,-40.22,-31.34,-36.93,-48.73,-52.19
2023/01/03 01:59:31+0000,-32.45,-39.40,-29.13,-38.15,-48.37,-52.40
2023/01/03 02:00:23+0000,-31.47,-41.23,-31.37,-37.40,-48.13,-52.36
2023/01/03 02:01:23+0000,-31.68,-39.59,-31.61,-37.94,-48.25,-52.30
2023/01/03 02:02:15+0000,-32.02,-40.36,-31.59,-38.07,-48.31,-52.61
2023/01/03 02:03:07+0000,-31.33,-39.09,-29.88,-37.82,-48.17,-52.64
2023/01/03 02:03:59+0000,-31.96,-40.28,-30.63,-37.91,-48.66,-52.83
2023/01/03 02:04:51+0000,-31.41,-41.72,-31.77,-37.64,-48.37,-52.61
2023/01/03 02:05:43+0000,-31.67,-40.48,-32.00,-38.14,-48.64,-52.89
2023/01/03 02:06:35+0000,-31.61,-40.72,-30.86,-37.98,-47.71,-52.47
2023/01/03 02:07:28+0000,-31.53,-40.92,-31.94,-37.46,-48.76,-52.21
2023/01/03 02:08:20+0000,-31.96,-40.70,-31.58,-37.86,-48.73,-52.40
2023/01/03 02:09:12+0000,-31.16,-40.66,-32.38,-37.70,-48.37,-52.50
2023/01/03 02:10:04+0000,-31.49,-41.14,-31.28,-37.81,-47.49,-53.27
2023/01/03 02:11:03+0000,-31.16,-40.45,-30.78,-37.75,-48.39,-52.64
2023/01/03 02:11:55+0000,-31.34,-40.64,-32.42,-38.10,-48.41,-52.68
2023/01/03 02:12:47+0000,-32.01,-40.12,-30.66,-36.76,-48.42,-53.01
2023/01/03 02:13:39+0000,-31.76,-40.27,-31.15,-36.35,-47.98,-52.43
2023/01/03 02:14:31+0000,-33.23,-40.42,-31.75,-37.00,-48.35,-52.68
2023/01/03 02:15:24+0000,-32.48,-40.95,-32.21,-37.93,-48.22,-52.73
2023/01/03 02:16:16+0000,-32.99,-40.44,-32.13,-36.44,-48.72,-53.11
2023/01/03 02:17:08+0000,-34.02,-40.93,-31.53,-37.04,-48.87,-52.59
2023/01/03 02:18:00+0000,-35.16,-39.94,-31.38,-37.01,-48.40,-52.39
2023/01/03 02:18:52+0000,-33.59,-40.70,-31.59,-37.54,-48.18,-52.75
2023/01/03 02:19:44+0000,-34.19,-40.55,-32.31,-36.71,-48.02,-52.36
2023/01/03 02:20:36+0000,-34.80,-40.54,-31.83,-36.54,-48.25,-52.85
2023/01/03 02:21:36+0000,-33.75,-40.77,-31.66,-36.57,-48.40,-52.05
2023/01/03 02:22:28+0000,-34.55,-38.60,-32.98,-38.44,-47.84,-52.51
2023/01/03 02:23:20+0000,-33.78,-39.75,-32.61,-38.64,-48.33,-52.89
2023/01/03 02:24:12+0000,-34.77,-38.00,-32.64,-37.09,-48.31,-51.84
2023/01/03 02:25:04+0000,-33.76,-38.64,-31.56,-38.28,-48.04,-52.41
2023/01/03 02:25:56+0000,-34.22,-39.09,-31.96,-38.46,-47.96,-52.21
2023/01/03 02:26:48+0000,-34.25,-39.79,-32.06,-38.50,-47.94,-52.22
2023/01/03 02:27:40+0000,-33.84,-40.20,-31.92,-37.03,-48.05,-52.42
2023/01/03 02:28:32+0000,-34.17,-39.39,-31.22,-38.74,-47.99,-52.53
2023/01/03 02:29:24+0000,-33.98,-40.72,-32.07,-38.48,-47.94,-52.70
2023/01/03 02:30:17+0000,-33.25,-41.10,-31.65,-37.61,-48.16,-52.04
2023/01/03 02:31:16+0000,-32.58,-40.38,-32.07,-37.00,-47.96,-52.28
2023/01/03 02:32:08+0000,-33.45,-41.50,-32.21,-36.71,-47.67,-52.48
2023/01/03 02:33:00+0000,-33.62,-40.28,-31.40,-38.19,-47.78,-51.98
2023/01/03 02:33:52+0000,-33.67,-41.06,-31.92,-38.54,-47.29,-52.20
2023/01/03 02:34:44+0000,-33.93,-39.87,-32.15,-37.55,-47.13,-52.05
2023/01/03 02:35:36+0000,-34.05,-40.37,-31.52,-37.58,-46.59,-52.21
2023/01/03 02:36:29+0000,-32.89,-40.68,-32.58,-38.85,-46.23,-52.18
2023/01/03 02:37:21+0000,-32.55,-41.00,-32.45,-38.58,-47.02,-51.72
2023/01/03 02:38:13+0000,-33.67,-39.94,-32.36,-37.31,-46.39,-52.54
2023/01/03 02:39:05+0000,-33.88,-39.14,-31.76,-38.39,-48.19,-53.05
2023/01/03 02:39:57+0000,-34.53,-39.07,-32.07,-37.91,-47.51,-52.73
2023/01/03 02:40:49+0000,-33.62,-40.38,-32.21,-38.61,-47.06,-51.96
2023/01/03 02:41:49+0000,-34.36,-40.03,-32.64,-39.29,-47.01,-52.24
2023/01/03 02:42:41+0000,-33.60,-39.57,-31.62,-37.31,-47.36,-52.95
2023/01/03 02:43:33+0000,-33.57,-39.25,-31.76,-38.71,-48.25,-52.45
2023/01/03 02:44:25+0000,-34.47,-39.45,-31.87,-38.47,-47.56,-52.01
2023/01/03 02:45:17+0000,-33.33,-41.39,-31.40,-37.94,-47.44,-51.93
2023/01/03 02:46:09+0000,-33.67,-39.94,-31.78,-37.41,-48.10,-52.15
2023/01/03 02:47:01+0000,-33.88,-38.65,-32.04,-39.47,-47.13,-52.64
2023/01/03 02:47:53+0000,-34.65,-40.19,-32.69,-38.53,-47.50,-51.86
2023/01/03 02:48:45+0000,-34.12,-40.57,-32.17,-37.44,-47.44,-51.92
2023/01/03 02:49:37+0000,-33.50,-40.36,-32.23,-38.03,-47.46,-52.66
2023/01/03 02:50:30+0000,-34.15,-41.32,-32.58,-39.64,-47.82,-52.47
2023/01/03 02:51:29+0000,-33.63,-40.94,-32.11,-39.09,-47.12,-52.54
2023/01/03 02:52:21+0000,-33.64,-40.58,-32.20,-38.93,-48.06,-52.31
2023/01/03 02:53:13+0000,-33.16,-40.19,-32.61,-37.70,-47.58,-52.58
2023/01/03 02:54:05+0000,-34.33,-40.32,-31.86,-39.07,-47.61,-52.75
2023/01/03 02:54:57+0000,-33.61,-40.57,-32.17,-39.48,-47.73,-51.90
2023/01/03 02:55:49+0000,-34.03,-40.15,-32.04,-39.46,-47.61,-53.05
2023/01/03 02:56:41+0000,-33.54,-40.49,-31.87,-37.98,-47.61,-52.78
2023/01/03 02:57:33+0000,-33.83,-39.80,-32.46,-39.96,-47.89,-52.52
2023/01/03 02:58:25+0000,-33.56,-40.49,-32.15,-38.36,-47.71,-52.37
2023/01/03 02:59:17+0000,-33.83,-40.19,-31.96,-37.50,-48.57,-52.52
2023/01/03 03:00:09+0000,-34.17,-39.49,-32.08,-37.68,-47.49,-52.08
2023/01/03 03:01:10+0000,-33.31,-40.09,-31.77,-37.70,-47.07,-52.76
2023/01/03 03:02:02+0000,-34.33,-40.37,-31.81,-39.10,-47.86,-52.54
2023/01/03 03:02:54+0000,-33.49,-39.65,-32.24,-39.36,-48.10,-52.53
2023/01/03 03:03:46+0000,-33.41,-40.04,-32.40,-37.61,-47.87,-52.31
2023/01/03 03:04:38+0000,-34.04,-40.57,-32.48,-36.92,-47.48,-51.91
2023/01/03 03:05:30+0000,-33.87,-40.14,-31.86,-38.62,-48.27,-52.46
2023/01/03 03:06:22+0000,-32.50,-39.30,-32.55,-40.30,-47.52,-52.13
2023/01/03 03:07:14+0000,-31.99,-40.84,-32.26,-37.42,-47.91,-52.34
2023/01/03 03:08:06+0000,-33.02,-41.26,-32.05,-38.13,-48.03,-52.80
2023/01/03 03:08:58+0000,-32.97,-40.16,-31.95,-39.63,-47.41,-52.74
2023/01/03 03:09:50+0000,-32.35,-39.85,-31.98,-39.13,-47.67,-52.53
2023/01/03 03:10:42+0000,-32.90,-39.61,-31.54,-38.35,-47.53,-52.51
2023/01/03 03:11:41+0000,-32.25,-39.84,-32.29,-38.50,-47.43,-53.03
2023/01/03 03:12:34+0000,-32.62,-39.89,-31.97,-39.40,-47.24,-51.84
2023/01/03 03:13:26+0000,-32.06,-39.30,-31.75,-38.66,-47.22,-52.29
2023/01/03 03:14:18+0000,-32.60,-39.84,-31.94,-37.75,-47.23,-52.24
2023/01/03 03:15:10+0000,-32.43,-40.19,-32.47,-37.98,-47.16,-52.63
2023/01/03 03:16:02+0000,-32.95,-39.92,-32.12,-39.94,-47.57,-52.51
2023/01/03 03:16:54+0000,-32.43,-39.70,-31.59,-38.66,-47.22,-52.10
2023/01/03 03:17:46+0000,-33.17,-40.40,-31.60,-38.33,-47.82,-52.31
2023/01/03 03:18:38+0000,-32.82,-39.56,-32.23,-37.85,-47.48,-51.87
2023/01/03 03:19:30+0000,-33.61,-40.36,-32.42,-40.27,-47.43,-52.45
2023/01/03 03:20:22+0000,-33.76,-39.99,-31.93,-38.98,-47.02,-52.41
2023/01/03 03:21:22+0000,-33.18,-39.66,-31.66,-40.53,-47.99,-52.32
2023/01/03 03:22:14+0000,-33.69,-40.15,-31.67,-38.50,-47.88,-52.64
2023/01/03 03:23:06+0000,-32.49,-41.34,-31.71,-38.43,-48.14,-52.67
2023/01/03 03:23:58+0000,-33.42,-39.62,-31.92,-40.13,-47.90,-52.18
2023/01/03 03:24:50+0000,-33.40,-40.41,-31.72,-39.62,-47.87,-52.30
2023/01/03 03:25:42+0000,-33.52,-40.81,-31.71,-38.97,-48.06,-52.86
2023/01/03 03:26:34+0000,-32.54,-40.98,-31.77,-40.56,-48.00,-51.72
2023/01/03 03:27:26+0000,-33.19,-41.23,-31.92,-40.25,-47.95,-52.49
2023/01/03 03:28:18+0000,-33.68,-41.05,-31.81,-40.41,-47.65,-52.61
2023/01/03 03:29:10+0000,-33.67,-40.33,-31.60,-38.23,-49.24,-52.24
2023/01/03 03:30:03+0000,-32.98,-39.75,-31.91,-40.65,-47.94,-51.34
2023/01/03 03:31:02+0000,-33.10,-40.25,-32.31,-40.61,-48.81,-51.39
2023/01/03 03:31:54+0000,-33.80,-40.32,-31.86,-41.07,-48.85,-52.23
2023/01/03 03:32:46+0000,-32.93,-40.57,-31.48,-38.55,-48.13,-51.94
2023/01/03 03:33:38+0000,-33.44,-39.83,-32.61,-38.55,-47.51,-51.60
2023/01/03 03:34:30+0000,-33.16,-39.54,-32.17,-39.83,-46.83,-51.30
2023/01/03 03:35:22+0000,-33.76,-40.74,-32.18,-39.79,-49.11,-50.82
2023/01/03 03:36:14+0000,-33.69,-41.01,-31.88,-39.17,-49.09,-51.96
2023/01/03 03:37:06+0000,-33.48,-40.52,-31.96,-38.47,-49.30,-52.45
2023/01/03 03:37:58+0000,-32.96,-38.93,-31.57,-39.30,-49.85,-52.24
2023/01/03 03:38:50+0000,-32.57,-41.16,-32.01,-41.14,-49.85,-52.70
2023/01/03 03:39:43+0000,-32.74,-40.80,-31.46,-39.02,-49.52,-52.21
2023/01/03 03:40:35+0000,-33.40,-39.54,-31.55,-40.21,-49.61,-52.20
2023/01/03 03:41:34+0000,-33.04,-38.83,-32.00,-41.30,-49.58,-52.76
2023/01/03 03:42:26+0000,-33.04,-39.68,-31.93,-41.19,-49.55,-53.18
2023/01/03 03:43:19+0000,-33.66,-41.08,-31.22,-39.14,-50.03,-52.96
2023/01/03 03:44:11+0000,-33.64,-41.19,-32.30,-39.57,-49.65,-52.42
2023/01/03 03:45:03+0000,-33.78,-39.10,-31.61,-40.30,-48.97,-52.60
2023/01/03 03:45:55+0000,-33.79,-39.46,-31.70,-40.50,-49.21,-52.63
2023/01/03 03:46:47+0000,-34.03,-39.47,-31.84,-39.68,-48.37,-51.92
2023/01/03 03:47:39+0000,-32.59,-39.40,-31.89,-39.42,-49.29,-52.79
2023/01/03 03:48:31+0000,-32.82,-38.82,-32.26,-41.26,-49.07,-52.50
2023/01/03 03:49:23+0000,-33.67,-40.61,-31.67,-40.56,-48.49,-52.53
2023/01/03 03:50:15+0000,-32.76,-38.50,-32.22,-39.42,-49.12,-52.52
2023/01/03 03:51:15+0000,-33.29,-38.32,-32.32,-39.80,-48.98,-52.79
2023/01/03 03:52:07+0000,-32.97,-39.78,-31.97,-39.69,-49.32,-52.57
2023/01/03 03:52:59+0000,-33.94,-39.80,-31.90,-40.75,-48.77,-51.79
2023/01/03 03:53:51+0000,-33.09,-38.89,-31.64,-40.63,-48.80,-52.47
2023/01/03 03:54:43+0000,-33.00,-38.14,-32.68,-39.06,-48.55,-53.05
2023/01/03 03:55:35+0000,-33.13,-39.45,-31.89,-41.33,-48.96,-52.30
2023/01/03 03:56:27+0000,-32.40,-39.76,-32.20,-40.67,-49.19,-52.68
2023/01/03 03:57:19+0000,-33.78,-38.55,-32.43,-40.35,-48.82,-52.30
2023/01/03 03:58:11+0000,-33.25,-38.97,-31.82,-40.47,-48.69,-53.02
2023/01/03 03:59:03+0000,-33.15,-39.99,-31.68,-40.33,-48.54,-52.27
2023/01/03 03:59:55+0000,-33.40,-40.41,-32.19,-41.03,-48.79,-53.40
2023/01/03 04:00:47+0000,-32.69,-40.15,-31.59,-39.64,-48.52,-53.04
2023/01/03 04:01:47+0000,-32.65,-41.35,-32.36,-41.40,-49.15,-52.23
2023/01/03 04:02:39+0000,-33.28,-40.12,-32.11,-38.83,-48.98,-53.26
2023/01/03 04:03:31+0000,-33.43,-39.70,-32.69,-39.95,-49.37,-52.87
2023/01/03 04:04:23+0000,-34.89,-39.02,-32.17,-39.56,-47.68,-52.73
2023/01/03 04:05:15+0000,-34.27,-40.31,-32.09,-38.44,-48.34,-53.00
2023/01/03 04:06:07+0000,-33.11,-41.03,-31.43,-38.61,-48.83,-52.33
2023/01/03 04:06:59+0000,-33.56,-40.42,-31.38,-39.62,-49.25,-53.23
2023/01/03 04:07:51+0000,-33.68,-41.25,-31.43,-40.08,-48.57,-52.93
2023/01/03 04:08:43+0000,-33.62,-41.61,-31.63,-39.30,-48.94,-53.25
2023/01/03 04:09:36+0000,-33.25,-41.79,-31.51,-39.09,-48.38,-53.61
2023/01/03 04:10:28+0000,-33.14,-39.37,-32.08,-40.45,-48.37,-52.86
2023/01/03 04:11:27+0000,-32.99,-40.92,-31.86,-39.35,-48.03,-52.59
2023/01/03 04:12:19+0000,-33.33,-40.21,-31.59,-39.59,-48.42,-51.85
2023/01/03 04:13:11+0000,-33.55,-40.91,-32.03,-38.80,-48.61,-52.85
2023/01/03 04:14:03+0000,-33.35,-41.43,-32.28,-39.59,-48.10,-52.72
2023/01/03 04:14:55+0000,-33.51,-41.67,-31.96,-40.21,-48.93,-52.27
2023/01/03 04:15:47+0000,-33.45,-41.33,-32.12,-38.94,-48.43,-51.93
2023/01/03 04:16:39+0000,-34.65,-40.25,-31.97,-38.82,-48.71,-52.86
2023/01/03 04:17:31+0000,-34.60,-41.19,-31.77,-39.73,-48.98,-52.74
2023/01/03 04:18:23+0000,-33.75,-40.42,-31.82,-39.91,-47.86,-50.80
2023/01/03 04:19:15+0000,-34.92,-40.62,-32.06,-39.53,-47.68,-52.39
2023/01/03 04:20:07+0000,-33.39,-40.11,-32.09,-39.19,-47.24,-52.70
2023/01/03 04:21:07+0000,-33.52,-40.88,-32.03,-39.11,-47.56,-51.86
2023/01/03 04:21:59+0000,-33.81,-41.05,-31.96,-40.34,-47.88,-52.49
2023/01/03 04:22:51+0000,-33.48,-40.18,-32.06,-39.00,-47.79,-52.57
2023/01/03 04:23:43+0000,-33.67,-41.24,-31.55,-38.55,-47.93,-51.54
2023/01/03 04:24:35+0000,-34.32,-41.26,-31.71,-40.29,-47.74,-52.17
2023/01/03 04:25:27+0000,-34.09,-40.93,-32.01,-40.43,-46.93,-52.22
2023/01/03 04:26:19+0000,-33.93,-40.35,-31.76,-41.42,-47.52,-52.29
2023/01/03 04:27:11+0000,-33.33,-41.42,-31.82,-39.32,-47.50,-51.92
2023/01/03 04:28:03+0000,-33.64,-40.37,-32.25,-41.11,-47.86,-52.57
2023/01/03 04:28:55+0000,-33.63,-40.49,-32.01,-42.24,-47.99,-52.86
2023/01/03 04:29:47+0000,-33.33,-41.22,-32.21,-39.24,-47.47,-52.10
2023/01/03 04:30:39+0000,-34.22,-40.08,-32.33,-39.67,-48.10,-52.09
2023/01/03 04:31:39+0000,-34.56,-40.31,-31.65,-40.13,-47.87,-51.58
2023/01/03 04:32:31+0000,-33.98,-40.31,-32.23,-40.18,-47.08,-52.04
2023/01/03 04:33:23+0000,-33.56,-41.03,-32.29,-39.97,-47.76,-51.90
2023/01/03 04:34:15+0000,-34.55,-40.71,-32.32,-39.97,-47.80,-51.96
2023/01/03 04:35:07+0000,-34.66,-40.91,-32.31,-39.94,-47.85,-52.06
2023/01/03 04:35:59+0000,-34.04,-41.09,-32.48,-41.26,-47.93,-51.03
2023/01/03 04:36:51+0000,-33.79,-40.74,-32.31,-41.28,-48.46,-52.33
2023/01/03 04:37:43+0000,-33.34,-41.51,-32.56,-39.55,-47.83,-52.66
2023/01/03 04:38:35+0000,-33.90,-40.87,-31.77,-40.88,-48.26,-51.67
2023/01/03 04:39:27+0000,-34.74,-40.77,-32.55,-40.82,-45.75,-51.31
2023/01/03 04:40:20+0000,-32.95,-41.52,-32.30,-41.53,-47.82,-51.90
2023/01/03 04:41:18+0000,-33.33,-41.18,-32.19,-39.45,-47.63,-50.96
2023/01/03 04:42:10+0000,-32.79,-40.54,-32.35,-39.37,-47.56,-52.10
2023/01/03 04:43:02+0000,-32.59,-41.19,-32.07,-40.69,-48.08,-52.53
2023/01/03 04:43:54+0000,-33.41,-40.82,-31.69,-40.37,-47.62,-51.87
2023/01/03 04:44:47+0000,-34.56,-39.66,-32.10,-39.57,-45.71,-51.50
2023/01/03 04:45:39+0000,-34.00,-40.86,-31.90,-38.73,-47.38,-52.11